Content
SEND FEEDBACK

Daily
Averages
Monthly
Summary
Mexico

PUERTO MORELOS, QUINTANA ROO


Home > North America > Mexico > Quintana Roo
Elevation: 20 feet     Latitude: 20 51N     Longitude: 086 52W

WEATHER
 
SELECT A DAY
Number of Records: 167,712;   Date Range: 1/1/95 - 12/16/14
 
SHARE

PRINT THIS DATA

[ ← Previous Day ]
WEATHER ALMANAC - MAY 3, 2013
[ Next Day → ]
[ °C ]   °F
Weather ElementAverageHighLow
Temperature77.2 °F87.8 °F (1:40 pm)68 °F (5:45 am)
Dewpoint66.9 °F69.8 °F (1:45 am)62.6 °F (3:41 pm)
Humidity72.9 %100 % (3:43 am)48 % (11:41 am)
Barometer29.89 in29.98 in (1:40 pm)29.81 in (3:41 pm)
Wind Speed12.8 mph25.3 mph (2:40 pm)
Wind Gust36.8 mph (2:40 pm)
Weather ElementAverage
Visibility6.7 mi
Wind DirectionNW (311.3 °)

Weather ElementTotal
Precipitation---
Cooling Degree Days12.9 (Base 65)
Growing Degree Days27.9 (Base 50)
Averaged from 23 records on May 3, 2013
WEATHER CONDITIONS BREAKOUT
WIND DIRECTION BREAKOUT
WEATHER BY HOUR - MAY 3, 2013
[ °C ]   °F
Local TimeTemperatureDewpointHumidityBarometerVisibilityWind DirectionWind SpeedGust SpeedPrecipitationEventsConditions
1:45 AM71.6 °F69.8 °F94 %29.85 in6.0 miNW (320°)4.6 mphScattered Clouds
2:41 AM71.6 °F69.8 °F94 %29.84 in6.0 miNW (320°)3.5 mphScattered Clouds
3:43 AM69.8 °F69.8 °F100 %29.84 in6.0 miNW (320°)4.6 mphScattered Clouds
4:40 AM69.8 °F68.0 °F94 %29.85 in6.0 miNW (310°)4.6 mphScattered Clouds
5:45 AM68.0 °F68.0 °F100 %29.87 in6.0 miNW (310°)3.5 mphScattered Clouds
6:43 AM68.0 °F68.0 °F100 %29.88 in6.0 miWNW (300°)8.1 mphScattered Clouds
7:40 AM71.6 °F69.8 °F94 %29.90 in6.0 miWNW (300°)8.1 mphClear
8:44 AM77.0 °F69.8 °F78 %29.90 in6.0 miWNW (300°)12.7 mphClear
9:45 AM80.6 °F68.0 °F65 %29.92 in7.0 miWNW (300°)17.3 mphScattered Clouds
10:41 AM82.4 °F66.2 °F58 %29.92 in7.0 miNNW (330°)11.5 mphMostly Cloudy
11:41 AM86.0 °F64.4 °F48 %29.90 in7.0 miNW (310°)19.6 mphMostly Cloudy
12:44 PM86.0 °F64.4 °F48 %29.91 in7.0 miNW (310°)19.6 mphMostly Cloudy
1:40 PM87.8 °F66.2 °F49 %29.98 in7.0 miNW (310°)18.4 mphMostly Cloudy
2:40 PM86.0 °F66.2 °F51 %29.85 in7.0 miNW (310°)25.3 mph36.8 mphMostly Cloudy
3:41 PM84.2 °F62.6 °F48 %29.81 in7.0 miNW (310°)20.7 mphScattered Clouds
4:41 PM84.2 °F64.4 °F51 %29.85 in7.0 miNW (320°)19.6 mphScattered Clouds
5:42 PM82.4 °F64.4 °F54 %29.86 in7.0 miNW (320°)21.9 mphScattered Clouds
6:42 PM78.8 °F66.2 °F65 %29.89 in7.0 miNW (310°)19.6 mphPartly Cloudy
7:42 PM77.0 °F68.0 °F74 %29.90 in7.0 miNW (320°)12.7 mphPartly Cloudy
8:42 PM75.2 °F66.2 °F73 %29.92 in7.0 miNW (310°)12.7 mphClear
9:48 PM73.4 °F66.2 °F78 %29.89 in7.0 miWNW (300°)8.1 mphClear
10:47 PM73.4 °F66.2 °F78 %29.94 in7.0 miNW (320°)9.2 mphClear
11:46 PM71.6 °F66.2 °F83 %29.93 in7.0 miWNW (300°)8.1 mphClear
Hourly data recorded from MMUN, located miles away from Puerto Morelos, Quintana Roo







STORIES FROM OUR PARTNERS